JOTAC Weather Reports


time (UTC)temp
F
wind
direction
speed
knots
gust
knots
rain 1hr
in
rain 24hr
in
rain mn
in
humidity
%
barometer
mb
20260507073030 51 108 3.5 7.8 0.00 0.01 0.01 73 1011.4
20260507071551 49 107 3.5 7.8 0.00 0.01 0.01 73 1011.5
20260507070031 50 96 2.6 7.0 0.00 0.01 0.01 75 1011.6
20260507064529 47 91 1.7 7.0 0.00 0.01 0.01 79 1011.7
20260507063032 46 88 2.6 7.0 0.00 0.00 0.00 81 1011.6
20260507061535 45 100 4.3 8.7 0.00 0.00 0.00 82 1011.5
20260507060030 45 88 3.5 7.0 0.00 0.00 0.00 83 1011.3
20260507054531 45 0 0.0 1.7 0.00 0.00 0.00 84 1011.3
20260507053032 45 0 0.0 1.7 0.00 0.00 0.00 82 1011.5
20260507051529 45 0 0.0 1.7 0.00 0.00 0.00 81 1011.8
20260507050029 45 0 0.0 3.5 0.00 0.00 0.00 80 1011.6
20260507044530 45 0 0.9 4.3 0.00 0.00 0.00 80 1011.8
20260507043035 44 86 1.7 5.2 0.00 0.00 0.00 81 1011.6
20260507041532 44 67 2.6 6.1 0.00 0.00 0.00 81 1011.6
20260507040029 44 70 3.5 7.0 0.00 0.00 0.00 80 1011.7
20260507034530 45 99 4.3 7.8 0.00 0.00 0.00 80 1011.8
20260507033026 45 94 4.3 7.8 0.00 0.00 0.00 80 1011.9
20260507031532 44 94 4.3 8.7 0.00 0.00 0.00 80 1012.0
20260507030032 44 92 3.5 7.0 0.00 0.00 0.00 80 1011.9
20260507024534 44 107 4.3 9.6 0.00 0.00 0.00 80 1011.9
20260507023030 44 66 4.3 7.8 0.00 0.00 0.00 80 1011.8
20260507021530 45 100 3.5 8.7 0.00 0.00 0.00 80 1012.0
20260507020033 45 76 3.5 7.8 0.00 0.00 0.00 80 1012.0
20260507014532 45 84 3.5 7.8 0.00 0.00 0.00 80 1012.0
20260507013036 45 82 2.6 5.2 0.00 0.00 0.00 81 1012.2
20260507011538 45 74 1.7 5.2 0.00 0.00 0.00 81 1012.3
20260507010032 45 59 1.7 4.3 0.00 0.00 0.00 80 1012.4
20260507004531 45 82 2.6 5.2 0.00 0.00 0.00 80 1012.4
20260507003029 45 73 1.7 3.5 0.00 0.00 0.00 80 1012.4
20260507001536 45 0 0.0 1.7 0.00 0.00 0.00 81 1012.7
20260507000030 45 76 0.0 1.7 0.00 0.00 0.00 81 1012.5
20260506234541 45 63 0.0 2.6 0.00 0.00 0.00 81 1012.4
20260506233034 45 0 0.0 1.7 0.00 0.00 0.00 81 1012.5
20260506231535 45 0 0.0 2.6 0.00 0.00 0.00 80 1012.7
20260506230030 46 86 2.6 5.2 0.00 0.00 0.00 80 1012.6
20260506224532 46 73 3.5 7.8 0.00 0.00 0.00 79 1012.5
20260506223031 46 88 4.3 7.0 0.00 0.00 0.00 79 1012.5
20260506221529 47 84 4.3 6.1 0.00 0.00 0.00 78 1012.5
20260506220030 47 92 3.5 6.1 0.00 0.00 0.00 77 1012.7
20260506214529 47 97 3.5 6.1 0.00 0.00 0.00 75 1012.8
20260506213028 48 74 0.9 7.0 0.00 0.00 0.00 71 1012.8
20260506211536 48 67 0.9 4.3 0.00 0.00 0.00 66 1012.7
20260506210031 49 350 1.7 4.3 0.00 0.00 0.00 64 1012.5
20260506204534 51 0 0.0 1.7 0.00 0.00 0.00 61 1012.3
20260506203043 51 94 0.9 2.6 0.00 0.00 0.00 59 1012.2
20260506201532 51 109 0.9 1.7 0.00 0.00 0.00 58 1012.0
20260506200044 52 120 0.9 2.6 0.00 0.00 0.00 57 1011.9
20260506194531 52 129 0.9 2.6 0.00 0.00 0.00 54 1011.9
20260506193032 53 129 0.0 1.7 0.00 0.00 0.00 52 1011.8
20260506191530 54 129 0.9 3.5 0.00 0.00 0.00 51 1011.7
20260506190036 55 124 0.9 3.5 0.00 0.00 0.00 49 1011.6
20260506184531 56 135 0.9 3.5 0.00 0.00 0.00 46 1011.6
20260506183031 56 97 2.6 5.2 0.00 0.00 0.00 45 1011.6
20260506181534 57 133 1.7 7.8 0.00 0.00 0.00 43 1011.6
20260506180035 59 124 2.6 5.2 0.00 0.00 0.00 41 1011.6
20260506174531 59 118 2.6 6.1 0.00 0.03 0.00 41 1011.7
20260506173039 60 143 2.6 7.8 0.00 0.03 0.00 41 1011.8
20260506171534 60 180 0.9 7.0 0.00 0.03 0.00 42 1011.7
20260506170028 60 167 2.6 7.0 0.00 0.03 0.00 43 1011.8
20260506164530 61 144 3.5 8.7 0.00 0.07 0.00 41 1011.8
20260506163050 61 0 0.9 10.4 0.00 0.07 0.00 42 1011.8
20260506161531 61 124 2.6 9.6 0.00 0.07 0.00 42 1011.8
20260506160031 61 136 1.7 5.2 0.00 0.07 0.00 41 1011.8
20260506154537 60 238 1.7 6.1 0.00 0.11 0.00 42 1012.0
20260506153032 61 178 1.7 8.7 0.00 0.11 0.00 45 1012.2
20260506151538 59 165 0.9 5.2 0.00 0.11 0.00 46 1012.2
20260506150032 58 149 2.6 13.0 0.00 0.11 0.00 46 1012.5
20260506144529 60 137 2.6 7.0 0.00 0.11 0.00 44 1012.6
20260506143032 60 122 0.9 7.0 0.00 0.11 0.00 43 1012.6
20260506141529 60 94 3.5 9.6 0.00 0.11 0.00 44 1012.7
20260506140035 59 91 3.5 7.8 0.00 0.11 0.00 42 1012.8
20260506134532 59 127 1.7 4.3 0.00 0.11 0.00 47 1013.0
20260506133029 57 202 0.0 7.0 0.00 0.11 0.00 50 1013.1
20260506131535 58 133 2.6 6.1 0.00 0.11 0.00 51 1013.1
20260506130030 57 180 1.7 5.2 0.00 0.11 0.00 54 1013.3
20260506124532 55 0 0.9 5.2 0.00 0.11 0.00 53 1013.5
20260506123032 55 165 0.9 5.2 0.00 0.11 0.00 54 1013.7
20260506121532 55 142 1.7 3.5 0.00 0.11 0.00 55 1013.8
20260506120034 55 0 0.0 3.5 0.00 0.11 0.00 59 1013.9
20260506114531 56 95 0.9 3.5 0.00 0.11 0.00 56 1014.0
20260506113030 53 211 2.6 5.2 0.00 0.11 0.00 57 1014.1
20260506111534 53 280 0.9 7.0 0.00 0.11 0.00 57 1014.1
20260506110030 54 285 1.7 4.3 0.00 0.11 0.00 59 1014.1
20260506104529 55 0 0.0 3.5 0.00 0.11 0.00 57 1014.1
20260506103031 55 82 0.0 6.1 0.00 0.11 0.00 57 1014.2
20260506101528 55 20 0.9 4.3 0.00 0.11 0.00 57 1014.2
20260506100031 55 71 2.6 6.1 0.00 0.11 0.00 54 1014.2
20260506094532 54 94 1.7 3.5 0.00 0.11 0.00 57 1014.3
20260506093032 53 104 2.6 5.2 0.00 0.11 0.00 59 1014.2
20260506091530 53 61 0.0 3.5 0.00 0.11 0.00 63 1014.2
20260506090029 52 322 1.7 4.3 0.00 0.11 0.00 63 1014.2
20260506084537 51 317 1.7 4.3 0.00 0.11 0.00 67 1014.1
20260506083032 49 316 0.9 3.5 0.00 0.11 0.00 67 1014.1
20260506081530 48 300 0.9 3.5 0.00 0.11 0.00 71 1014.2